2023/05/24 00:00:00, 0.1,10.0
2023/05/24 00:10:00, 0.1, 9.9
2023/05/24 00:20:00, 0.1, 9.9
2023/05/24 00:30:00, 0.1,10.2
2023/05/24 00:40:00, 0.1,10.1
2023/05/24 00:50:00, 0.1,10.2
2023/05/24 01:00:00, 0.1, 9.9
2023/05/24 01:10:00, 0.2, 9.6
2023/05/24 01:20:00, 0.2,10.1
2023/05/24 01:30:00, 0.2, 9.9
2023/05/24 01:40:00, 0.2,10.1
2023/05/24 01:50:00, 0.2,10.4
2023/05/24 02:00:00, 0.2,10.0
2023/05/24 02:10:00, 0.2, 9.9
2023/05/24 02:20:00, 0.1, 9.6
2023/05/24 02:30:00, 0.1, 9.9
2023/05/24 02:40:00, 0.1, 9.4
2023/05/24 02:50:00, 0.1, 9.6
2023/05/24 03:00:00, 0.0, 9.6
2023/05/24 03:10:00, 0.0, 9.5
2023/05/24 03:20:00, 0.0, 9.4
2023/05/24 03:30:00, 0.0, 9.1
2023/05/24 03:40:00, 0.0, 8.9
2023/05/24 03:50:00, 0.0, 8.8
2023/05/24 04:00:00, 0.0, 8.8
2023/05/24 04:10:00, 0.0, 9.2
2023/05/24 04:20:00, 0.0, 9.2
2023/05/24 04:30:00, 0.0, 9.6
2023/05/24 04:40:00, 0.0, 9.6
2023/05/24 04:50:00, 0.0, 9.6
2023/05/24 05:00:00, 0.0, 9.7
2023/05/24 05:10:00, 0.1, 9.9
2023/05/24 05:20:00, 0.1,10.1
2023/05/24 05:30:00, 0.2,10.2
2023/05/24 05:40:00, 0.2,10.3
2023/05/24 05:50:00, 0.2,10.3
2023/05/24 06:00:00, 0.1,10.3
2023/05/24 06:10:00, 0.1,10.3
2023/05/24 06:20:00, 0.1,10.2
2023/05/24 06:30:00, 0.1,11.4
2023/05/24 06:40:00, 0.1,12.0
2023/05/24 06:50:00, 0.1,13.1
2023/05/24 07:00:00, 0.2,14.0
2023/05/24 07:10:00, 0.1,15.2
2023/05/24 07:20:00, 0.1,15.9
2023/05/24 07:30:00, 0.1,16.1
2023/05/24 07:40:00, 0.1,15.3
2023/05/24 07:50:00, 0.1,15.8
2023/05/24 08:00:00, 0.2,16.4
2023/05/24 08:10:00, 0.1,17.1
2023/05/24 08:20:00, 0.0,16.8
2023/05/24 08:30:00, 0.1,16.1
2023/05/24 08:40:00, 0.1,17.0
2023/05/24 08:50:00, 0.1,17.5
2023/05/24 09:00:00, 0.2,17.8
2023/05/24 09:10:00, 0.1,17.9
2023/05/24 09:20:00, 0.1,18.7
2023/05/24 09:30:00, 0.0,17.6
2023/05/24 09:40:00, 0.0,17.5
2023/05/24 09:50:00, 0.0,19.4
2023/05/24 10:00:00, 0.0,18.9
2023/05/24 10:10:00, 0.1,19.5
2023/05/24 10:20:00, 0.1,20.0
2023/05/24 10:30:00, 0.3,19.1
2023/05/24 10:40:00, 0.2,19.6
2023/05/24 10:50:00, 0.3,20.6
2023/05/24 11:00:00, 0.2,19.1
2023/05/24 11:10:00, 0.2,19.9
2023/05/24 11:20:00, 0.2,21.2
2023/05/24 11:30:00, 0.2,20.2
2023/05/24 11:40:00, 0.2,21.4
2023/05/24 11:50:00, 0.2,21.9
2023/05/24 12:00:00, 0.2,21.2
2023/05/24 12:10:00, 0.1,21.6
2023/05/24 12:20:00, 0.1,21.6
2023/05/24 12:30:00, 0.3,22.7
2023/05/24 12:40:00, 0.1,21.6
2023/05/24 12:50:00, 0.1,23.4
2023/05/24 13:00:00, 0.1,22.4
2023/05/24 13:10:00, 0.2,23.4
2023/05/24 13:20:00, 0.1,21.6
2023/05/24 13:30:00, 0.1,22.3
2023/05/24 13:40:00, 0.2,22.1
2023/05/24 13:50:00, 0.2,22.9
2023/05/24 14:00:00, 0.3,23.0
2023/05/24 14:10:00, 0.2,24.0
2023/05/24 14:20:00, 0.2,23.5
2023/05/24 14:30:00, 0.1,23.6
2023/05/24 14:40:00, 0.1,24.5
2023/05/24 14:50:00, 0.0,24.0
2023/05/24 15:00:00, 0.0,23.9
2023/05/24 15:10:00, 0.0,23.9
2023/05/24 15:20:00, 0.1,23.5
2023/05/24 15:30:00, 0.0,24.0
2023/05/24 15:40:00, 0.0,25.5
2023/05/24 15:50:00, 0.1,27.0
2023/05/24 16:00:00, 0.1,28.4
2023/05/24 16:10:00, 0.0,28.2
2023/05/24 16:20:00, 0.0,28.9
2023/05/24 16:30:00, 0.0,30.0
2023/05/24 16:40:00, 0.0,28.9
2023/05/24 16:50:00, 0.0,31.2
2023/05/24 17:00:00, 0.0,30.4
2023/05/24 17:10:00, 0.0,29.8
2023/05/24 17:20:00, 0.0,30.9
2023/05/24 17:30:00, 0.0,27.0
2023/05/24 17:40:00, 0.0,21.8
2023/05/24 17:50:00, 0.0,20.2
2023/05/24 18:00:00, 0.0,19.0
2023/05/24 18:10:00, 0.0,18.3
2023/05/24 18:20:00, 0.0,18.0
2023/05/24 18:30:00, 0.0,17.2
2023/05/24 18:40:00, 0.0,16.7
2023/05/24 18:50:00, 0.1,16.3
2023/05/24 19:00:00, 0.1,15.4
2023/05/24 19:10:00, 0.0,14.6
2023/05/24 19:20:00, 0.0,14.9
2023/05/24 19:30:00, 0.0,14.5
2023/05/24 19:40:00, 0.0,14.4
2023/05/24 19:50:00, 0.0,14.2
2023/05/24 20:00:00, 0.0,14.1
2023/05/24 20:10:00, 0.0,13.6
2023/05/24 20:20:00, 0.0,13.3
2023/05/24 20:30:00, 0.0,13.2
2023/05/24 20:40:00, 0.0,13.2
2023/05/24 20:50:00, 0.0,13.2
2023/05/24 21:00:00, 0.0,12.7
2023/05/24 21:10:00, 0.0,12.4
2023/05/24 21:20:00, 0.0,12.4
2023/05/24 21:30:00, 0.0,12.2
2023/05/24 21:40:00, 0.0,12.1
2023/05/24 21:50:00, 0.0,11.9
2023/05/24 22:00:00, 0.0,11.8
2023/05/24 22:10:00, 0.1,11.7
2023/05/24 22:20:00, 0.1,11.7
2023/05/24 22:30:00, 0.0,11.5
2023/05/24 22:40:00, 0.0,11.5
2023/05/24 22:50:00, 0.0,11.2
2023/05/24 23:00:00, 0.0,11.3
2023/05/24 23:10:00, 0.1,10.8
2023/05/24 23:20:00, 0.1,10.6
2023/05/24 23:30:00, 0.1,10.5
2023/05/24 23:40:00, 0.0,10.6
2023/05/24 23:50:00, 0.0,10.5
